Time,TemperatureF,DewpointF,PressureIn,WindDirection,WindDirectionDegrees,WindSpeedMPH,WindSpeedGustMPH,Humidity,HourlyPrecipIn,Conditions,Clouds,dailyrainin,SolarRadiationWatts/m^2,SoftwareType,DateUTC
2013-03-13 00:00:00,17.9,14.2,30.30,NW,313,18.0,23.0,85,0.00,,---,0.01,0.00,VWS V14.01,2013-03-13 05:00:00,
2013-03-13 00:05:00,17.8,14.1,30.31,NW,315,17.0,20.0,85,0.00,,---,0.00,0.00,VWS V14.01,2013-03-13 05:05:00,
2013-03-13 00:10:00,17.8,14.1,30.31,NW,311,12.0,20.0,85,0.00,,---,0.00,0.00,VWS V14.01,2013-03-13 05:10:00,
2013-03-13 00:15:00,17.6,13.9,30.31,NW,313,16.0,20.0,85,0.00,,---,0.00,0.00,VWS V14.01,2013-03-13 05:15:00,
2013-03-13 00:20:00,17.3,13.6,30.31,NW,307,14.0,16.0,85,0.00,,---,0.00,0.00,VWS V14.01,2013-03-13 05:20:00,
2013-03-13 00:25:00,17.1,13.4,30.31,NW,311,14.0,17.0,85,0.00,,---,0.00,0.00,VWS V14.01,2013-03-13 05:25:00,
2013-03-13 00:30:00,16.9,13.2,30.31,NW,309,15.0,17.0,85,0.00,,---,0.00,0.00,VWS V14.01,2013-03-13 05:30:00,
2013-03-13 00:35:00,16.8,13.4,30.31,NW,312,16.0,18.0,86,0.00,,---,0.00,0.00,VWS V14.01,2013-03-13 05:35:00,
2013-03-13 00:40:00,16.7,13.2,30.31,NW,316,15.0,18.0,86,0.00,,---,0.00,0.00,VWS V14.01,2013-03-13 05:40:00,
2013-03-13 00:45:00,16.7,13.2,30.31,NW,321,12.0,18.0,86,0.00,,---,0.00,0.00,VWS V14.01,2013-03-13 05:45:00,
2013-03-13 00:50:00,16.8,13.4,30.31,NW,310,14.0,18.0,86,0.00,,---,0.00,0.00,VWS V14.01,2013-03-13 05:50:00,
2013-03-13 00:55:00,16.8,13.4,30.31,NW,312,15.0,18.0,86,0.00,,---,0.00,0.00,VWS V14.01,2013-03-13 05:55:00,
2013-03-13 01:00:00,16.7,13.0,30.32,NW,308,13.0,18.0,85,0.00,,---,0.00,0.00,VWS V14.01,2013-03-13 06:00:00,
2013-03-13 01:05:00,16.6,12.9,30.32,NW,309,15.0,17.0,85,0.00,,---,0.00,0.00,VWS V14.01,2013-03-13 06:05:00,
2013-03-13 01:10:00,16.4,12.7,30.32,NW,317,15.0,17.0,85,0.00,,---,0.00,0.00,VWS V14.01,2013-03-13 06:10:00,
2013-03-13 01:15:00,16.4,12.9,30.32,NW,313,18.0,20.0,86,0.00,,---,0.00,0.00,VWS V14.01,2013-03-13 06:15:00,
2013-03-13 01:20:00,16.4,12.9,30.31,NW,319,12.0,16.0,86,0.00,,---,0.00,0.00,VWS V14.01,2013-03-13 06:20:00,
2013-03-13 01:25:00,16.3,12.9,30.32,NW,309,12.0,17.0,86,0.00,,---,0.00,0.00,VWS V14.01,2013-03-13 06:25:00,
2013-03-13 01:30:00,16.1,12.7,30.32,NW,309,14.0,17.0,86,0.00,,---,0.00,0.00,VWS V14.01,2013-03-13 06:30:00,
2013-03-13 01:35:00,16.0,12.6,30.32,NW,310,14.0,17.0,86,0.00,,---,0.00,0.00,VWS V14.01,2013-03-13 06:35:00,
2013-03-13 01:40:00,15.9,12.5,30.32,NW,307,15.0,17.0,86,0.00,,---,0.00,0.00,VWS V14.01,2013-03-13 06:40:00,
2013-03-13 01:45:00,15.8,12.4,30.32,NW,308,13.0,17.0,86,0.00,,---,0.00,0.00,VWS V14.01,2013-03-13 06:45:00,
2013-03-13 01:50:00,15.6,12.2,30.33,NW,313,12.0,16.0,86,0.00,,---,0.00,0.00,VWS V14.01,2013-03-13 06:50:00,
2013-03-13 01:55:00,15.6,12.2,30.33,NW,307,11.0,16.0,86,0.00,,---,0.00,0.00,VWS V14.01,2013-03-13 06:55:00,
2013-03-13 02:00:00,15.6,12.2,30.33,NW,307,12.0,16.0,86,0.00,,---,0.00,0.00,VWS V14.01,2013-03-13 07:00:00,
2013-03-13 02:05:00,15.5,12.1,30.34,NW,309,12.0,15.0,86,0.00,,---,0.00,0.00,VWS V14.01,2013-03-13 07:05:00,
2013-03-13 02:10:00,15.5,12.1,30.34,NW,307,11.0,15.0,86,0.00,,---,0.00,0.00,VWS V14.01,2013-03-13 07:10:00,
2013-03-13 02:15:00,15.4,12.0,30.34,NW,304,11.0,15.0,86,0.00,,---,0.00,0.00,VWS V14.01,2013-03-13 07:15:00,
2013-03-13 02:20:00,15.4,12.2,30.34,WNW,302,13.0,14.0,87,0.00,,---,0.00,0.00,VWS V14.01,2013-03-13 07:20:00,
2013-03-13 02:25:00,15.5,12.3,30.34,NW,304,14.0,15.0,87,0.00,,---,0.00,0.00,VWS V14.01,2013-03-13 07:25:00,
2013-03-13 02:30:00,15.6,12.2,30.34,NW,308,12.0,15.0,86,0.00,,---,0.00,0.00,VWS V14.01,2013-03-13 07:30:00,
2013-03-13 02:35:00,15.6,12.2,30.34,WNW,302,7.0,11.0,86,0.00,,---,0.00,0.00,VWS V14.01,2013-03-13 07:35:00,
2013-03-13 02:40:00,15.7,12.3,30.34,NW,304,13.0,14.0,86,0.00,,---,0.00,0.00,VWS V14.01,2013-03-13 07:40:00,
2013-03-13 02:45:00,15.6,12.2,30.34,WNW,302,12.0,14.0,86,0.00,,---,0.00,0.00,VWS V14.01,2013-03-13 07:45:00,
2013-03-13 02:50:00,15.5,12.1,30.34,NW,310,15.0,15.0,86,0.00,,---,0.00,0.00,VWS V14.01,2013-03-13 07:50:00,
2013-03-13 02:55:00,15.4,12.0,30.34,NW,310,9.0,15.0,86,0.00,,---,0.00,0.00,VWS V14.01,2013-03-13 07:55:00,
2013-03-13 03:00:00,15.2,11.8,30.34,NW,312,10.0,15.0,86,0.00,,---,0.00,0.00,VWS V14.01,2013-03-13 08:00:00,
2013-03-13 03:08:00,15.0,11.6,30.35,NW,306,11.0,13.0,86,0.00,,---,0.00,0.00,VWS V14.01,2013-03-13 08:08:00,
2013-03-13 03:13:00,15.0,11.6,30.35,NW,304,12.0,13.0,86,0.00,,---,0.00,0.00,VWS V14.01,2013-03-13 08:13:00,
2013-03-13 03:18:00,15.0,11.6,30.34,NW,309,14.0,14.0,86,0.00,,---,0.00,0.00,VWS V14.01,2013-03-13 08:18:00,
2013-03-13 03:23:00,14.9,11.5,30.34,NW,308,11.0,15.0,86,0.00,,---,0.00,0.00,VWS V14.01,2013-03-13 08:23:00,
2013-03-13 03:28:00,15.0,11.6,30.35,NW,311,12.0,17.0,86,0.00,,---,0.00,0.00,VWS V14.01,2013-03-13 08:28:00,
2013-03-13 03:33:00,14.9,11.5,30.34,NW,315,13.0,17.0,86,0.00,,---,0.00,0.00,VWS V14.01,2013-03-13 08:33:00,
2013-03-13 03:38:00,15.0,11.6,30.35,NW,314,15.0,17.0,86,0.00,,---,0.00,0.00,VWS V14.01,2013-03-13 08:38:00,
2013-03-13 03:43:00,15.0,11.6,30.35,NW,304,11.0,17.0,86,0.00,,---,0.00,0.00,VWS V14.01,2013-03-13 08:43:00,
2013-03-13 03:48:00,14.9,11.5,30.35,WNW,303,13.0,17.0,86,0.00,,---,0.00,0.00,VWS V14.01,2013-03-13 08:48:00,
2013-03-13 03:53:00,14.7,11.3,30.35,NW,309,12.0,14.0,86,0.00,,---,0.00,0.00,VWS V14.01,2013-03-13 08:53:00,
2013-03-13 03:58:00,14.6,11.2,30.35,NW,304,11.0,14.0,86,0.00,,---,0.00,0.00,VWS V14.01,2013-03-13 08:58:00,
2013-03-13 04:03:00,14.5,11.1,30.36,NW,304,7.0,14.0,86,0.00,,---,0.00,0.00,VWS V14.01,2013-03-13 09:03:00,
2013-03-13 04:08:00,14.4,11.0,30.36,WNW,296,9.0,11.0,86,0.00,,---,0.00,0.00,VWS V14.01,2013-03-13 09:08:00,
2013-03-13 04:13:00,14.3,10.9,30.36,NW,311,9.0,11.0,86,0.00,,---,0.00,0.00,VWS V14.01,2013-03-13 09:13:00,
2013-03-13 04:18:00,14.3,10.9,30.36,NW,313,10.0,13.0,86,0.00,,---,0.00,0.00,VWS V14.01,2013-03-13 09:18:00,
2013-03-13 04:23:00,14.3,10.9,30.36,NW,308,10.0,12.0,86,0.00,,---,0.00,0.00,VWS V14.01,2013-03-13 09:23:00,
2013-03-13 04:28:00,14.1,10.7,30.36,NW,305,11.0,13.0,86,0.00,,---,0.00,0.00,VWS V14.01,2013-03-13 09:28:00,
2013-03-13 04:33:00,14.1,10.7,30.36,NW,311,12.0,13.0,86,0.00,,---,0.00,0.00,VWS V14.01,2013-03-13 09:33:00,
2013-03-13 04:38:00,14.1,10.7,30.36,NW,313,13.0,14.0,86,0.00,,---,0.00,0.00,VWS V14.01,2013-03-13 09:38:00,
2013-03-13 04:43:00,14.0,10.6,30.37,NW,317,11.0,14.0,86,0.00,,---,0.00,0.00,VWS V14.01,2013-03-13 09:43:00,
2013-03-13 04:48:00,14.0,10.6,30.37,NW,316,15.0,15.0,86,0.00,,---,0.00,0.00,VWS V14.01,2013-03-13 09:48:00,
2013-03-13 04:53:00,14.0,10.6,30.37,NW,314,10.0,15.0,86,0.00,,---,0.00,0.00,VWS V14.01,2013-03-13 09:53:00,
2013-03-13 04:58:00,13.9,10.5,30.37,NW,318,9.0,15.0,86,0.00,,---,0.00,0.00,VWS V14.01,2013-03-13 09:58:00,
2013-03-13 05:03:00,13.7,10.3,30.38,WNW,299,9.0,15.0,86,0.00,,---,0.00,0.00,VWS V14.01,2013-03-13 10:03:00,
2013-03-13 05:08:00,13.6,10.2,30.38,WNW,288,5.0,11.0,86,0.00,,---,0.00,0.00,VWS V14.01,2013-03-13 10:08:00,
2013-03-13 05:13:00,13.5,10.1,30.39,WNW,292,5.0,11.0,86,0.00,,---,0.00,0.00,VWS V14.01,2013-03-13 10:13:00,
2013-03-13 05:18:00,13.2,9.8,30.39,WNW,299,4.0,11.0,86,0.00,,---,0.00,0.00,VWS V14.01,2013-03-13 10:18:00,
2013-03-13 05:23:00,12.9,9.5,30.39,WNW,293,7.0,9.0,86,0.00,,---,0.00,0.00,VWS V14.01,2013-03-13 10:23:00,
2013-03-13 05:28:00,12.8,9.4,30.39,WNW,292,7.0,9.0,86,0.00,,---,0.00,0.00,VWS V14.01,2013-03-13 10:28:00,
2013-03-13 05:33:00,12.7,9.6,30.39,WNW,299,6.0,9.0,87,0.00,,---,0.00,0.00,VWS V14.01,2013-03-13 10:33:00,
2013-03-13 05:38:00,12.5,9.1,30.39,WNW,297,5.0,10.0,86,0.00,,---,0.00,0.00,VWS V14.01,2013-03-13 10:38:00,
2013-03-13 05:43:00,12.3,9.2,30.39,WNW,296,6.0,10.0,87,0.00,,---,0.00,0.00,VWS V14.01,2013-03-13 10:43:00,
2013-03-13 05:48:00,12.1,9.0,30.39,WNW,296,5.0,10.0,87,0.00,,---,0.00,0.00,VWS V14.01,2013-03-13 10:48:00,
2013-03-13 05:53:00,12.0,8.9,30.40,WNW,296,5.0,7.0,87,0.00,,---,0.00,0.00,VWS V14.01,2013-03-13 10:53:00,
2013-03-13 05:58:00,12.1,9.0,30.40,WNW,292,6.0,10.0,87,0.00,,---,0.00,0.00,VWS V14.01,2013-03-13 10:58:00,
2013-03-13 06:03:00,12.2,9.3,30.39,WNW,294,9.0,12.0,88,0.00,,---,0.00,0.00,VWS V14.01,2013-03-13 11:03:00,
2013-03-13 06:08:00,12.3,9.4,30.40,WNW,294,10.0,12.0,88,0.00,,---,0.00,0.00,VWS V14.01,2013-03-13 11:08:00,
2013-03-13 06:13:00,12.3,9.4,30.40,WNW,290,6.0,12.0,88,0.00,,---,0.00,0.00,VWS V14.01,2013-03-13 11:13:00,
2013-03-13 06:18:00,12.3,9.4,30.40,WNW,285,9.0,12.0,88,0.00,,---,0.00,0.00,VWS V14.01,2013-03-13 11:18:00,
2013-03-13 06:23:00,12.5,9.6,30.41,WNW,292,11.0,13.0,88,0.00,,---,0.00,0.00,VWS V14.01,2013-03-13 11:23:00,
2013-03-13 06:28:00,12.7,9.8,30.40,WNW,289,10.0,13.0,88,0.00,,---,0.00,0.00,VWS V14.01,2013-03-13 11:28:00,
2013-03-13 06:33:00,12.8,9.9,30.41,WNW,291,7.0,14.0,88,0.00,,---,0.00,0.00,VWS V14.01,2013-03-13 11:33:00,
2013-03-13 06:38:00,12.8,9.9,30.41,WNW,286,9.0,11.0,88,0.00,,---,0.00,0.00,VWS V14.01,2013-03-13 11:38:00,
2013-03-13 06:43:00,12.8,9.9,30.41,WNW,286,4.0,11.0,88,0.00,,---,0.00,0.00,VWS V14.01,2013-03-13 11:43:00,
2013-03-13 06:48:00,12.9,10.0,30.41,WNW,287,7.0,11.0,88,0.00,,---,0.00,0.00,VWS V14.01,2013-03-13 11:48:00,
2013-03-13 06:53:00,12.7,9.6,30.41,WNW,298,6.0,9.0,87,0.00,,---,0.00,0.00,VWS V14.01,2013-03-13 11:53:00,
2013-03-13 06:58:00,12.5,9.4,30.41,WNW,294,5.0,9.0,87,0.00,,---,0.00,0.00,VWS V14.01,2013-03-13 11:58:00,
2013-03-13 07:03:00,12.3,9.2,30.41,WNW,292,6.0,9.0,87,0.00,,---,0.00,0.00,VWS V14.01,2013-03-13 12:03:00,
2013-03-13 07:08:00,12.3,9.4,30.41,WNW,294,6.0,9.0,88,0.00,,---,0.00,0.00,VWS V14.01,2013-03-13 12:08:00,
2013-03-13 07:13:00,12.3,9.2,30.41,WNW,296,4.0,9.0,87,0.00,,---,0.00,0.00,VWS V14.01,2013-03-13 12:13:00,
2013-03-13 07:18:00,12.2,9.1,30.41,WNW,295,3.0,9.0,87,0.00,,---,0.00,0.00,VWS V14.01,2013-03-13 12:18:00,
2013-03-13 07:23:00,12.1,9.0,30.41,WNW,295,1.0,5.0,87,0.00,,---,0.00,0.00,VWS V14.01,2013-03-13 12:23:00,
2013-03-13 07:28:00,11.8,8.7,30.41,WNW,295,2.0,5.0,87,0.00,,---,0.00,0.00,VWS V14.01,2013-03-13 12:28:00,
2013-03-13 07:33:00,11.7,8.6,30.41,WNW,295,2.0,5.0,87,0.00,,---,0.00,5.00,VWS V14.01,2013-03-13 12:33:00,
2013-03-13 07:38:00,11.6,8.5,30.42,WNW,295,4.0,6.0,87,0.00,,---,0.00,9.00,VWS V14.01,2013-03-13 12:38:00,
2013-03-13 07:43:00,11.6,8.5,30.41,WNW,295,6.0,6.0,87,0.00,,---,0.00,14.00,VWS V14.01,2013-03-13 12:43:00,
2013-03-13 07:48:00,11.6,8.7,30.41,WNW,300,3.0,7.0,88,0.00,,---,0.00,21.00,VWS V14.01,2013-03-13 12:48:00,
2013-03-13 07:53:00,11.4,8.5,30.42,WNW,297,4.0,7.0,88,0.00,,---,0.00,32.00,VWS V14.01,2013-03-13 12:53:00,
2013-03-13 07:58:00,11.4,8.5,30.42,WNW,297,4.0,7.0,88,0.00,,---,0.00,39.00,VWS V14.01,2013-03-13 12:58:00,
2013-03-13 08:03:00,11.5,8.6,30.42,WNW,296,5.0,9.0,88,0.00,,---,0.00,51.00,VWS V14.01,2013-03-13 13:03:00,
2013-03-13 08:08:00,11.5,8.6,30.42,WNW,296,5.0,9.0,88,0.00,,---,0.00,65.00,VWS V14.01,2013-03-13 13:08:00,
2013-03-13 08:13:00,11.3,8.2,30.42,WNW,296,6.0,9.0,87,0.00,,---,0.00,81.00,VWS V14.01,2013-03-13 13:13:00,
2013-03-13 08:18:00,11.2,8.1,30.42,WNW,295,3.0,9.0,87,0.00,,---,0.00,97.00,VWS V14.01,2013-03-13 13:18:00,
2013-03-13 08:23:00,11.1,8.0,30.42,WNW,295,5.0,6.0,87,0.00,,---,0.00,114.00,VWS V14.01,2013-03-13 13:23:00,
2013-03-13 08:28:00,11.2,8.1,30.42,WNW,295,8.0,9.0,87,0.00,,---,0.00,130.00,VWS V14.01,2013-03-13 13:28:00,
2013-03-13 08:33:00,11.2,8.1,30.43,WNW,296,5.0,9.0,87,0.00,,---,0.00,144.00,VWS V14.01,2013-03-13 13:33:00,
2013-03-13 08:38:00,11.3,8.2,30.43,WNW,295,5.0,8.0,87,0.00,,---,0.00,158.00,VWS V14.01,2013-03-13 13:38:00,
2013-03-13 08:43:00,11.6,8.5,30.44,WNW,282,8.0,12.0,87,0.00,,---,0.00,176.00,VWS V14.01,2013-03-13 13:43:00,
2013-03-13 08:48:00,11.9,8.8,30.44,WNW,294,11.0,12.0,87,0.00,,---,0.00,192.00,VWS V14.01,2013-03-13 13:48:00,
2013-03-13 08:53:00,12.0,8.9,30.44,WNW,288,7.0,11.0,87,0.00,,---,0.00,207.00,VWS V14.01,2013-03-13 13:53:00,
2013-03-13 08:58:00,12.2,9.1,30.44,WNW,288,7.0,11.0,87,0.00,,---,0.00,225.00,VWS V14.01,2013-03-13 13:58:00,
2013-03-13 09:03:00,12.3,9.2,30.44,WNW,290,9.0,12.0,87,0.00,,---,0.00,243.00,VWS V14.01,2013-03-13 14:03:00,
2013-03-13 09:08:00,12.4,9.3,30.44,West,281,8.0,10.0,87,0.00,,---,0.00,258.00,VWS V14.01,2013-03-13 14:08:00,
2013-03-13 09:13:00,12.6,9.2,30.44,WNW,284,8.0,11.0,86,0.00,,---,0.00,278.00,VWS V14.01,2013-03-13 14:13:00,
2013-03-13 09:18:00,12.7,9.3,30.44,WNW,290,6.0,11.0,86,0.00,,---,0.00,295.00,VWS V14.01,2013-03-13 14:18:00,
2013-03-13 09:23:00,12.9,9.5,30.45,WNW,284,6.0,11.0,86,0.00,,---,0.00,315.00,VWS V14.01,2013-03-13 14:23:00,
2013-03-13 09:28:00,13.1,9.7,30.45,WNW,285,9.0,12.0,86,0.00,,---,0.00,332.00,VWS V14.01,2013-03-13 14:28:00,
2013-03-13 09:33:00,13.4,10.0,30.45,WNW,294,5.0,12.0,86,0.00,,---,0.00,346.00,VWS V14.01,2013-03-13 14:33:00,
2013-03-13 09:38:00,13.5,10.1,30.45,WNW,290,10.0,10.0,86,0.00,,---,0.00,364.00,VWS V14.01,2013-03-13 14:38:00,
2013-03-13 09:43:00,13.7,10.3,30.46,WNW,286,9.0,11.0,86,0.00,,---,0.00,376.00,VWS V14.01,2013-03-13 14:43:00,
2013-03-13 09:48:00,13.8,10.4,30.46,WNW,302,8.0,12.0,86,0.00,,---,0.00,392.00,VWS V14.01,2013-03-13 14:48:00,
2013-03-13 09:53:00,13.9,10.2,30.46,WNW,295,11.0,15.0,85,0.00,,---,0.00,410.00,VWS V14.01,2013-03-13 14:53:00,
2013-03-13 09:58:00,14.0,10.3,30.45,WNW,290,10.0,15.0,85,0.00,,---,0.00,425.00,VWS V14.01,2013-03-13 14:58:00,
2013-03-13 10:03:00,14.2,10.5,30.45,WNW,300,10.0,10.0,85,0.00,,---,0.00,441.00,VWS V14.01,2013-03-13 15:03:00,
2013-03-13 10:08:00,14.3,10.6,30.46,WNW,287,10.0,12.0,85,0.00,,---,0.00,455.00,VWS V14.01,2013-03-13 15:08:00,
2013-03-13 10:13:00,14.4,10.7,30.46,WNW,303,10.0,12.0,85,0.00,,---,0.00,471.00,VWS V14.01,2013-03-13 15:13:00,
2013-03-13 10:18:00,14.6,10.9,30.46,WNW,287,6.0,7.0,85,0.00,,---,0.00,485.00,VWS V14.01,2013-03-13 15:18:00,
2013-03-13 10:23:00,14.8,11.1,30.46,WNW,294,5.0,12.0,85,0.00,,---,0.00,497.00,VWS V14.01,2013-03-13 15:23:00,
2013-03-13 10:28:00,14.9,11.2,30.46,WNW,295,5.0,12.0,85,0.00,,---,0.00,515.00,VWS V14.01,2013-03-13 15:28:00,
2013-03-13 10:33:00,15.1,11.1,30.46,WNW,303,7.0,12.0,84,0.00,,---,0.00,531.00,VWS V14.01,2013-03-13 15:33:00,
2013-03-13 10:38:00,15.3,11.3,30.47,NW,306,11.0,12.0,84,0.00,,---,0.00,547.00,VWS V14.01,2013-03-13 15:38:00,
2013-03-13 10:43:00,15.3,11.3,30.47,WNW,301,10.0,13.0,84,0.00,,---,0.00,557.00,VWS V14.01,2013-03-13 15:43:00,
2013-03-13 10:48:00,15.7,12.0,30.47,WNW,283,9.0,13.0,85,0.00,,---,0.00,571.00,VWS V14.01,2013-03-13 15:48:00,
2013-03-13 10:53:00,16.0,12.3,30.47,WNW,291,10.0,13.0,85,0.00,,---,0.00,584.00,VWS V14.01,2013-03-13 15:53:00,
2013-03-13 10:58:00,15.9,11.9,30.47,WNW,289,9.0,13.0,84,0.00,,---,0.00,596.00,VWS V14.01,2013-03-13 15:58:00,
2013-03-13 11:03:00,16.1,12.1,30.47,WNW,288,9.0,9.0,84,0.00,,---,0.00,608.00,VWS V14.01,2013-03-13 16:03:00,
2013-03-13 11:08:00,16.2,12.2,30.47,WNW,291,10.0,12.0,84,0.00,,---,0.00,621.00,VWS V14.01,2013-03-13 16:08:00,
2013-03-13 11:13:00,16.2,12.2,30.47,WNW,286,10.0,12.0,84,0.00,,---,0.00,631.00,VWS V14.01,2013-03-13 16:13:00,
2013-03-13 11:18:00,16.4,12.4,30.47,WNW,286,11.0,13.0,84,0.00,,---,0.00,643.00,VWS V14.01,2013-03-13 16:18:00,
2013-03-13 11:23:00,16.7,12.7,30.47,WNW,285,8.0,13.0,84,0.00,,---,0.00,654.00,VWS V14.01,2013-03-13 16:23:00,
2013-03-13 11:28:00,16.8,12.8,30.48,WNW,294,10.0,14.0,84,0.00,,---,0.00,663.00,VWS V14.01,2013-03-13 16:28:00,
2013-03-13 11:33:00,17.0,13.0,30.47,WNW,295,9.0,14.0,84,0.00,,---,0.00,673.00,VWS V14.01,2013-03-13 16:33:00,
2013-03-13 11:38:00,17.4,13.4,30.47,WNW,300,9.0,11.0,84,0.00,,---,0.00,686.00,VWS V14.01,2013-03-13 16:38:00,
2013-03-13 11:43:00,17.5,13.5,30.47,WNW,302,12.0,14.0,84,0.00,,---,0.00,694.00,VWS V14.01,2013-03-13 16:43:00,
2013-03-13 11:48:00,17.7,13.4,30.47,WNW,295,9.0,10.0,83,0.00,,---,0.00,705.00,VWS V14.01,2013-03-13 16:48:00,
2013-03-13 11:53:00,17.9,13.6,30.47,WNW,302,11.0,12.0,83,0.00,,---,0.00,714.00,VWS V14.01,2013-03-13 16:53:00,
2013-03-13 11:58:00,18.0,13.7,30.47,WNW,300,8.0,13.0,83,0.00,,---,0.00,721.00,VWS V14.01,2013-03-13 16:58:00,
2013-03-13 12:03:00,18.2,13.9,30.47,NW,308,10.0,11.0,83,0.00,,---,0.00,728.00,VWS V14.01,2013-03-13 17:03:00,
2013-03-13 12:08:00,18.5,14.2,30.47,WNW,285,9.0,12.0,83,0.00,,---,0.00,737.00,VWS V14.01,2013-03-13 17:08:00,
2013-03-13 12:13:00,18.8,14.8,30.47,WNW,292,12.0,13.0,84,0.00,,---,0.00,744.00,VWS V14.01,2013-03-13 17:13:00,
2013-03-13 12:18:00,18.9,14.6,30.47,NW,310,10.0,11.0,83,0.00,,---,0.00,751.00,VWS V14.01,2013-03-13 17:18:00,
2013-03-13 12:23:00,19.0,15.0,30.47,WNW,286,7.0,12.0,84,0.00,,---,0.00,758.00,VWS V14.01,2013-03-13 17:23:00,
2013-03-13 12:28:00,19.4,15.4,30.46,WNW,291,9.0,12.0,84,0.00,,---,0.00,761.00,VWS V14.01,2013-03-13 17:28:00,
2013-03-13 12:33:00,19.6,15.6,30.46,WNW,289,8.0,8.0,84,0.00,,---,0.00,768.00,VWS V14.01,2013-03-13 17:33:00,
2013-03-13 12:38:00,19.7,15.4,30.46,WNW,289,5.0,11.0,83,0.00,,---,0.00,775.00,VWS V14.01,2013-03-13 17:38:00,
2013-03-13 12:43:00,19.7,15.4,30.45,WNW,295,5.0,11.0,83,0.00,,---,0.00,777.00,VWS V14.01,2013-03-13 17:43:00,
2013-03-13 12:48:00,19.8,15.5,30.45,WNW,287,7.0,7.0,83,0.00,,---,0.00,780.00,VWS V14.01,2013-03-13 17:48:00,
2013-03-13 12:53:00,20.2,15.9,30.45,NW,309,7.0,10.0,83,0.00,,---,0.00,784.00,VWS V14.01,2013-03-13 17:53:00,
2013-03-13 12:58:00,20.3,16.0,30.46,WNW,284,10.0,10.0,83,0.00,,---,0.00,788.00,VWS V14.01,2013-03-13 17:58:00,
2013-03-13 13:03:00,20.5,16.2,30.46,WNW,296,6.0,8.0,83,0.00,,---,0.00,791.00,VWS V14.01,2013-03-13 18:03:00,
2013-03-13 13:08:00,20.6,16.3,30.46,WNW,298,4.0,11.0,83,0.00,,---,0.00,793.00,VWS V14.01,2013-03-13 18:08:00,
2013-03-13 13:13:00,20.8,16.5,30.46,NW,306,9.0,11.0,83,0.00,,---,0.00,793.00,VWS V14.01,2013-03-13 18:13:00,
2013-03-13 13:18:00,20.8,16.5,30.46,NW,307,6.0,6.0,83,0.00,,---,0.00,795.00,VWS V14.01,2013-03-13 18:18:00,
2013-03-13 13:23:00,20.9,16.3,30.45,NW,311,9.0,9.0,82,0.00,,---,0.00,793.00,VWS V14.01,2013-03-13 18:23:00,
2013-03-13 13:28:00,21.0,16.7,30.46,WNW,299,4.0,11.0,83,0.00,,---,0.00,795.00,VWS V14.01,2013-03-13 18:28:00,
2013-03-13 13:33:00,21.3,17.0,30.46,WNW,303,9.0,10.0,83,0.00,,---,0.00,795.00,VWS V14.01,2013-03-13 18:33:00,
2013-03-13 13:38:00,21.5,17.1,30.45,WNW,290,4.0,10.0,83,0.00,,---,0.00,795.00,VWS V14.01,2013-03-13 18:38:00,
2013-03-13 13:43:00,21.8,17.2,30.45,NW,309,8.0,10.0,82,0.00,,---,0.00,793.00,VWS V14.01,2013-03-13 18:43:00,
2013-03-13 13:48:00,22.0,17.4,30.44,NW,305,3.0,3.0,82,0.00,,---,0.00,793.00,VWS V14.01,2013-03-13 18:48:00,
2013-03-13 13:53:00,22.3,17.6,30.44,WNW,300,3.0,9.0,82,0.00,,---,0.00,793.00,VWS V14.01,2013-03-13 18:53:00,
2013-03-13 13:58:00,22.6,17.7,30.44,WNW,300,1.0,9.0,81,0.00,,---,0.00,789.00,VWS V14.01,2013-03-13 18:58:00,
2013-03-13 14:03:00,22.7,17.8,30.44,WNW,301,5.0,5.0,81,0.00,,---,0.00,786.00,VWS V14.01,2013-03-13 19:03:00,
2013-03-13 14:08:00,22.7,17.5,30.44,WNW,300,2.0,5.0,80,0.00,,---,0.00,780.00,VWS V14.01,2013-03-13 19:08:00,
2013-03-13 14:13:00,22.8,17.6,30.44,WNW,303,3.0,6.0,80,0.00,,---,0.00,779.00,VWS V14.01,2013-03-13 19:13:00,
2013-03-13 14:18:00,22.9,17.7,30.44,WNW,302,5.0,6.0,80,0.00,,---,0.00,773.00,VWS V14.01,2013-03-13 19:18:00,
2013-03-13 14:23:00,22.9,17.7,30.44,NW,309,5.0,7.0,80,0.00,,---,0.00,768.00,VWS V14.01,2013-03-13 19:23:00,
2013-03-13 14:29:00,23.1,17.9,30.44,NW,315,4.0,7.0,80,0.00,,---,0.00,759.00,VWS V14.01,2013-03-13 19:29:00,
2013-03-13 14:34:00,23.1,17.9,30.44,NW,315,5.0,5.0,80,0.00,,---,0.00,756.00,VWS V14.01,2013-03-13 19:34:00,
2013-03-13 14:39:00,23.2,18.0,30.44,NW,309,3.0,8.0,80,0.00,,---,0.00,749.00,VWS V14.01,2013-03-13 19:39:00,
2013-03-13 14:44:00,23.3,18.1,30.43,NW,309,5.0,8.0,80,0.00,,---,0.00,740.00,VWS V14.01,2013-03-13 19:44:00,
2013-03-13 14:49:00,23.5,18.2,30.43,NW,309,7.0,9.0,80,0.00,,---,0.00,733.00,VWS V14.01,2013-03-13 19:49:00,
2013-03-13 14:54:00,23.7,18.5,30.43,NW,307,5.0,9.0,80,0.00,,---,0.00,728.00,VWS V14.01,2013-03-13 19:54:00,
2013-03-13 14:59:00,23.8,18.5,30.43,NW,308,6.0,9.0,80,0.00,,---,0.00,721.00,VWS V14.01,2013-03-13 19:59:00,
2013-03-13 15:04:00,24.0,18.7,30.43,NW,313,6.0,6.0,80,0.00,,---,0.00,710.00,VWS V14.01,2013-03-13 20:04:00,
2013-03-13 15:09:00,24.1,18.8,30.43,NW,313,6.0,7.0,80,0.00,,---,0.00,703.00,VWS V14.01,2013-03-13 20:09:00,
2013-03-13 15:14:00,24.3,18.7,30.43,NW,304,2.0,7.0,79,0.00,,---,0.00,694.00,VWS V14.01,2013-03-13 20:14:00,
2013-03-13 15:19:00,24.5,18.9,30.42,NW,305,1.0,1.0,79,0.00,,---,0.00,686.00,VWS V14.01,2013-03-13 20:19:00,
2013-03-13 15:24:00,24.7,19.1,30.42,NW,306,4.0,6.0,79,0.00,,---,0.00,675.00,VWS V14.01,2013-03-13 20:24:00,
2013-03-13 15:29:00,24.9,19.0,30.42,NW,306,4.0,6.0,78,0.00,,---,0.00,663.00,VWS V14.01,2013-03-13 20:29:00,
2013-03-13 15:34:00,25.2,19.6,30.42,NW,306,4.0,6.0,79,0.00,,---,0.00,654.00,VWS V14.01,2013-03-13 20:34:00,
2013-03-13 15:39:00,25.3,19.7,30.42,NW,306,4.0,6.0,79,0.00,,---,0.00,640.00,VWS V14.01,2013-03-13 20:39:00,
2013-03-13 15:44:00,25.4,19.8,30.42,NW,306,1.0,6.0,79,0.00,,---,0.00,633.00,VWS V14.01,2013-03-13 20:44:00,
2013-03-13 15:49:00,25.8,20.2,30.42,NW,306,0.0,1.0,79,0.00,,---,0.00,628.00,VWS V14.01,2013-03-13 20:49:00,
2013-03-13 15:54:00,26.4,20.5,30.42,NW,306,0.0,3.0,78,0.00,,---,0.00,615.00,VWS V14.01,2013-03-13 20:54:00,
2013-03-13 15:59:00,26.8,20.6,30.42,NW,306,0.0,3.0,77,0.00,,---,0.00,605.00,VWS V14.01,2013-03-13 20:59:00,
2013-03-13 16:04:00,27.0,20.8,30.42,NW,306,1.0,1.0,77,0.00,,---,0.00,591.00,VWS V14.01,2013-03-13 21:04:00,
2013-03-13 16:09:00,27.4,21.1,30.42,NW,306,3.0,3.0,77,0.00,,---,0.00,439.00,VWS V14.01,2013-03-13 21:09:00,
2013-03-13 16:14:00,27.4,20.8,30.41,NW,304,1.0,3.0,76,0.00,,---,0.00,566.00,VWS V14.01,2013-03-13 21:14:00,
2013-03-13 16:19:00,27.4,20.5,30.42,NW,306,1.0,2.0,75,0.00,,---,0.00,554.00,VWS V14.01,2013-03-13 21:19:00,
2013-03-13 16:24:00,27.4,20.8,30.41,NW,306,0.0,2.0,76,0.00,,---,0.00,538.00,VWS V14.01,2013-03-13 21:24:00,
2013-03-13 16:29:00,27.6,20.7,30.41,NW,306,0.0,2.0,75,0.00,,---,0.00,524.00,VWS V14.01,2013-03-13 21:29:00,
2013-03-13 16:34:00,27.9,21.3,30.40,NW,306,0.0,0.0,76,0.00,,---,0.00,392.00,VWS V14.01,2013-03-13 21:34:00,
2013-03-13 16:39:00,27.8,20.9,30.40,NW,306,0.0,0.0,75,0.00,,---,0.00,422.00,VWS V14.01,2013-03-13 21:39:00,
2013-03-13 16:44:00,27.5,20.9,30.39,NW,306,0.0,0.0,76,0.00,,---,0.00,221.00,VWS V14.01,2013-03-13 21:44:00,
2013-03-13 16:49:00,27.2,20.6,30.39,NW,304,0.0,0.0,76,0.00,,---,0.00,571.00,VWS V14.01,2013-03-13 21:49:00,
2013-03-13 16:54:00,27.4,20.8,30.38,NNE,23,0.0,1.0,76,0.00,,---,0.00,487.00,VWS V14.01,2013-03-13 21:54:00,
2013-03-13 16:59:00,27.5,21.2,30.38,East,98,5.0,5.0,77,0.00,,---,0.00,441.00,VWS V14.01,2013-03-13 21:59:00,
2013-03-13 17:04:00,27.4,20.8,30.38,ESE,114,4.0,4.0,76,0.00,,---,0.00,160.00,VWS V14.01,2013-03-13 22:04:00,
2013-03-13 17:09:00,27.2,21.0,30.37,ESE,110,4.0,6.0,77,0.00,,---,0.00,262.00,VWS V14.01,2013-03-13 22:09:00,
2013-03-13 17:14:00,27.2,21.0,30.37,East,94,5.0,6.0,77,0.00,,---,0.00,452.00,VWS V14.01,2013-03-13 22:14:00,
2013-03-13 17:19:00,27.1,21.2,30.36,East,101,3.0,5.0,78,0.00,,---,0.00,388.00,VWS V14.01,2013-03-13 22:19:00,
2013-03-13 17:24:00,27.3,21.4,30.36,ESE,103,5.0,6.0,78,0.00,,---,0.00,346.00,VWS V14.01,2013-03-13 22:24:00,
2013-03-13 17:29:00,27.4,21.5,30.36,SE,134,5.0,9.0,78,0.00,,---,0.00,323.00,VWS V14.01,2013-03-13 22:29:00,
2013-03-13 17:34:00,28.1,21.8,30.37,SSE,147,5.0,7.0,77,0.00,,---,0.00,304.00,VWS V14.01,2013-03-13 22:34:00,
2013-03-13 17:39:00,28.4,21.8,30.37,SE,141,6.0,11.0,76,0.00,,---,0.00,290.00,VWS V14.01,2013-03-13 22:39:00,
2013-03-13 17:44:00,28.6,22.0,30.37,SSE,157,6.0,11.0,76,0.00,,---,0.00,267.00,VWS V14.01,2013-03-13 22:44:00,
2013-03-13 17:49:00,28.7,22.1,30.37,SSE,151,5.0,7.0,76,0.00,,---,0.00,248.00,VWS V14.01,2013-03-13 22:49:00,
2013-03-13 17:54:00,28.6,22.3,30.37,SSE,161,5.0,8.0,77,0.00,,---,0.00,227.00,VWS V14.01,2013-03-13 22:54:00,
2013-03-13 17:59:00,28.7,22.4,30.37,SSE,152,5.0,9.0,77,0.00,,---,0.00,207.00,VWS V14.01,2013-03-13 22:59:00,
2013-03-13 18:04:00,28.6,22.0,30.37,SSE,151,5.0,7.0,76,0.00,,---,0.00,188.00,VWS V14.01,2013-03-13 23:04:00,
2013-03-13 18:09:00,28.5,22.2,30.36,SE,142,8.0,9.0,77,0.00,,---,0.00,171.00,VWS V14.01,2013-03-13 23:09:00,
2013-03-13 18:14:00,28.5,22.2,30.37,SE,131,9.0,10.0,77,0.00,,---,0.00,156.00,VWS V14.01,2013-03-13 23:14:00,
2013-03-13 18:19:00,28.5,22.2,30.37,SE,140,5.0,7.0,77,0.00,,---,0.00,139.00,VWS V14.01,2013-03-13 23:19:00,
2013-03-13 18:24:00,28.5,22.2,30.36,SE,145,6.0,8.0,77,0.00,,---,0.00,121.00,VWS V14.01,2013-03-13 23:24:00,
2013-03-13 18:29:00,28.5,22.2,30.37,SSE,157,5.0,10.0,77,0.00,,---,0.00,105.00,VWS V14.01,2013-03-13 23:29:00,
2013-03-13 18:34:00,28.6,22.3,30.37,SSE,167,5.0,10.0,77,0.00,,---,0.00,90.00,VWS V14.01,2013-03-13 23:34:00,
2013-03-13 18:39:00,28.5,22.2,30.36,SSE,163,6.0,10.0,77,0.00,,---,0.00,79.00,VWS V14.01,2013-03-13 23:39:00,
2013-03-13 18:44:00,28.5,22.2,30.36,SSE,159,5.0,10.0,77,0.00,,---,0.00,56.00,VWS V14.01,2013-03-13 23:44:00,
2013-03-13 18:49:00,28.4,22.1,30.36,SSE,156,6.0,7.0,77,0.00,,---,0.00,47.00,VWS V14.01,2013-03-13 23:49:00,
2013-03-13 18:54:00,28.3,22.3,30.36,SSE,156,4.0,7.0,78,0.00,,---,0.00,40.00,VWS V14.01,2013-03-13 23:54:00,
2013-03-13 18:59:00,28.1,21.8,30.36,SSE,164,6.0,11.0,77,0.00,,---,0.00,30.00,VWS V14.01,2013-03-13 23:59:00,
2013-03-13 19:04:00,28.0,21.7,30.36,SSE,156,6.0,7.0,77,0.00,,---,0.00,23.00,VWS V14.01,2013-03-14 00:04:00,
2013-03-13 19:09:00,27.9,21.9,30.35,SE,146,9.0,9.0,78,0.00,,---,0.00,16.00,VWS V14.01,2013-03-14 00:09:00,
2013-03-13 19:14:00,28.0,22.0,30.35,SSE,150,6.0,11.0,78,0.00,,---,0.00,11.00,VWS V14.01,2013-03-14 00:14:00,
2013-03-13 19:19:00,27.9,21.9,30.34,SSE,150,4.0,7.0,78,0.00,,---,0.00,5.00,VWS V14.01,2013-03-14 00:19:00,
2013-03-13 19:24:00,27.8,21.9,30.34,SSE,148,6.0,7.0,78,0.00,,---,0.00,0.00,VWS V14.01,2013-03-14 00:24:00,
2013-03-13 19:29:00,27.8,21.9,30.34,SSE,148,8.0,9.0,78,0.00,,---,0.00,0.00,VWS V14.01,2013-03-14 00:29:00,
2013-03-13 19:34:00,27.8,21.5,30.34,SSE,148,4.0,6.0,77,0.00,,---,0.00,0.00,VWS V14.01,2013-03-14 00:34:00,
2013-03-13 19:39:00,27.6,21.4,30.35,SSE,149,5.0,7.0,77,0.00,,---,0.00,0.00,VWS V14.01,2013-03-14 00:39:00,
2013-03-13 19:44:00,27.5,21.2,30.35,SSE,149,6.0,7.0,77,0.00,,---,0.00,0.00,VWS V14.01,2013-03-14 00:44:00,
2013-03-13 19:49:00,27.4,21.1,30.34,SSE,149,4.0,4.0,77,0.00,,---,0.00,0.00,VWS V14.01,2013-03-14 00:49:00,
2013-03-13 19:54:00,27.2,21.3,30.35,SSE,149,3.0,6.0,78,0.00,,---,0.00,0.00,VWS V14.01,2013-03-14 00:54:00,
2013-03-13 19:59:00,27.0,21.4,30.34,SSE,150,4.0,6.0,79,0.00,,---,0.00,0.00,VWS V14.01,2013-03-14 00:59:00,
2013-03-13 20:04:00,27.0,21.4,30.34,SSE,161,3.0,5.0,79,0.00,,---,0.00,0.00,VWS V14.01,2013-03-14 01:04:00,
2013-03-13 20:09:00,27.0,21.7,30.34,SSE,164,4.0,6.0,80,0.00,,---,0.00,0.00,VWS V14.01,2013-03-14 01:09:00,
2013-03-13 20:14:00,26.9,21.3,30.34,SSE,165,7.0,10.0,79,0.00,,---,0.00,0.00,VWS V14.01,2013-03-14 01:14:00,
2013-03-13 20:19:00,27.0,21.4,30.34,SSE,168,5.0,6.0,79,0.00,,---,0.00,0.00,VWS V14.01,2013-03-14 01:19:00,
2013-03-13 20:24:00,27.1,21.2,30.34,South,171,4.0,10.0,78,0.00,,---,0.00,0.00,VWS V14.01,2013-03-14 01:24:00,
2013-03-13 20:29:00,27.2,21.3,30.33,SSE,167,4.0,10.0,78,0.00,,---,0.00,0.00,VWS V14.01,2013-03-14 01:29:00,
2013-03-13 20:34:00,27.2,21.6,30.33,SSE,164,5.0,9.0,79,0.00,,---,0.00,0.00,VWS V14.01,2013-03-14 01:34:00,
2013-03-13 20:39:00,27.3,21.7,30.33,SSE,161,5.0,9.0,79,0.00,,---,0.00,0.00,VWS V14.01,2013-03-14 01:39:00,
2013-03-13 20:44:00,27.3,22.0,30.33,SSE,162,3.0,9.0,80,0.00,,---,0.00,0.00,VWS V14.01,2013-03-14 01:44:00,
2013-03-13 20:49:00,27.2,22.1,30.33,SSE,157,6.0,8.0,81,0.00,,---,0.00,0.00,VWS V14.01,2013-03-14 01:49:00,
2013-03-13 20:54:00,27.1,22.4,30.33,SSE,161,6.0,8.0,82,0.00,,---,0.00,0.00,VWS V14.01,2013-03-14 01:54:00,
2013-03-13 20:59:00,27.0,22.2,30.32,SSE,157,7.0,9.0,82,0.00,,---,0.00,0.00,VWS V14.01,2013-03-14 01:59:00,
2013-03-13 21:04:00,27.0,22.2,30.32,SSE,158,6.0,7.0,82,0.00,,---,0.00,0.00,VWS V14.01,2013-03-14 02:04:00,
2013-03-13 21:09:00,27.0,22.0,30.32,SSE,164,6.0,10.0,81,0.00,,---,0.00,0.00,VWS V14.01,2013-03-14 02:09:00,
2013-03-13 21:14:00,27.1,21.5,30.31,SSE,167,4.0,11.0,79,0.00,,---,0.00,0.00,VWS V14.01,2013-03-14 02:14:00,
2013-03-13 21:19:00,27.1,21.5,30.31,SSE,157,7.0,7.0,79,0.00,,---,0.00,0.00,VWS V14.01,2013-03-14 02:19:00,
2013-03-13 21:24:00,27.0,21.4,30.31,SSE,163,9.0,9.0,79,0.00,,---,0.00,0.00,VWS V14.01,2013-03-14 02:24:00,
2013-03-13 21:29:00,27.0,21.4,30.31,SSE,157,8.0,12.0,79,0.00,,---,0.00,0.00,VWS V14.01,2013-03-14 02:29:00,
2013-03-13 21:34:00,27.0,21.4,30.31,SSE,164,6.0,9.0,79,0.00,,---,0.00,0.00,VWS V14.01,2013-03-14 02:34:00,
2013-03-13 21:39:00,27.0,21.7,30.31,SSE,167,5.0,10.0,80,0.00,,---,0.00,0.00,VWS V14.01,2013-03-14 02:39:00,
2013-03-13 21:44:00,27.0,22.0,30.31,South,169,7.0,10.0,81,0.00,,---,0.00,0.00,VWS V14.01,2013-03-14 02:44:00,
2013-03-13 21:49:00,26.9,21.9,30.30,SSE,165,5.0,8.0,81,0.00,,---,0.00,0.00,VWS V14.01,2013-03-14 02:49:00,
2013-03-13 21:54:00,26.9,21.9,30.30,SSE,157,10.0,13.0,81,0.00,,---,0.00,0.00,VWS V14.01,2013-03-14 02:54:00,
2013-03-13 21:59:00,26.9,22.1,30.30,SSE,160,6.0,13.0,82,0.00,,---,0.00,0.00,VWS V14.01,2013-03-14 02:59:00,
2013-03-13 22:04:00,26.9,22.4,30.30,SSE,160,8.0,11.0,83,0.00,,---,0.00,0.00,VWS V14.01,2013-03-14 03:04:00,
2013-03-13 22:09:00,26.8,22.3,30.30,SSE,159,7.0,11.0,83,0.00,,---,0.00,0.00,VWS V14.01,2013-03-14 03:09:00,
2013-03-13 22:14:00,26.7,22.2,30.29,South,170,9.0,12.0,83,0.00,,---,0.00,0.00,VWS V14.01,2013-03-14 03:14:00,
2013-03-13 22:19:00,26.6,22.4,30.29,SSE,162,10.0,10.0,84,0.00,,---,0.00,0.00,VWS V14.01,2013-03-14 03:19:00,
2013-03-13 22:24:00,26.6,22.4,30.29,SSE,166,10.0,11.0,84,0.00,,---,0.00,0.00,VWS V14.01,2013-03-14 03:24:00,
2013-03-13 22:29:00,26.6,22.4,30.29,South,171,12.0,12.0,84,0.00,,---,0.00,0.00,VWS V14.01,2013-03-14 03:29:00,
2013-03-13 22:34:00,26.7,22.5,30.29,South,173,12.0,14.0,84,0.00,,---,0.00,0.00,VWS V14.01,2013-03-14 03:34:00,
2013-03-13 22:39:00,26.7,22.5,30.29,SSE,163,10.0,15.0,84,0.00,,---,0.00,0.00,VWS V14.01,2013-03-14 03:39:00,
2013-03-13 22:44:00,26.7,22.2,30.29,South,174,8.0,15.0,83,0.00,,---,0.00,0.00,VWS V14.01,2013-03-14 03:44:00,
2013-03-13 22:49:00,26.8,22.3,30.28,SSE,168,9.0,13.0,83,0.00,,---,0.00,0.00,VWS V14.01,2013-03-14 03:49:00,
2013-03-13 22:54:00,26.7,22.2,30.28,SSE,167,7.0,13.0,83,0.00,,---,0.00,0.00,VWS V14.01,2013-03-14 03:54:00,
2013-03-13 23:00:00,26.7,22.2,30.28,South,169,7.0,13.0,83,0.00,,---,0.00,0.00,VWS V14.01,2013-03-14 04:00:00,
2013-03-13 23:05:00,26.7,22.2,30.28,South,173,12.0,12.0,83,0.00,,---,0.00,0.00,VWS V14.01,2013-03-14 04:05:00,
2013-03-13 23:10:00,26.7,22.2,30.28,South,169,11.0,15.0,83,0.00,,---,0.00,0.00,VWS V14.01,2013-03-14 04:10:00,
2013-03-13 23:15:00,26.7,22.2,30.27,South,169,9.0,15.0,83,0.00,,---,0.00,0.00,VWS V14.01,2013-03-14 04:15:00,
2013-03-13 23:20:00,26.7,22.0,30.28,South,178,7.0,13.0,82,0.00,,---,0.00,0.00,VWS V14.01,2013-03-14 04:20:00,
2013-03-13 23:25:00,26.7,22.0,30.27,South,175,7.0,13.0,82,0.00,,---,0.00,0.00,VWS V14.01,2013-03-14 04:25:00,
2013-03-13 23:30:00,26.7,22.0,30.27,South,182,9.0,14.0,82,0.00,,---,0.00,0.00,VWS V14.01,2013-03-14 04:30:00,
2013-03-13 23:35:00,26.7,22.0,30.27,South,176,11.0,14.0,82,0.00,,---,0.00,0.00,VWS V14.01,2013-03-14 04:35:00,
2013-03-13 23:40:00,26.7,22.0,30.27,South,178,11.0,14.0,82,0.00,,---,0.00,0.00,VWS V14.01,2013-03-14 04:40:00,
2013-03-13 23:45:00,26.7,22.0,30.27,South,180,12.0,15.0,82,0.00,,---,0.00,0.00,VWS V14.01,2013-03-14 04:45:00,
2013-03-13 23:50:00,26.8,22.0,30.26,South,181,6.0,8.0,82,0.00,,---,0.00,0.00,VWS V14.01,2013-03-14 04:50:00,
2013-03-13 23:55:00,26.8,22.3,30.26,SSE,168,4.0,12.0,83,0.00,,---,0.00,0.00,VWS V14.01,2013-03-14 04:55:00,